WX2NJ Weather Reports


Display with metric or nautical units.
time (UTC)temp
F
wind
direction
speed
MPH
gust
MPH
rain 1hr
in
rain 24hr
in
rain mn
in
humidity
%
barometer
mb
20260504185750 70 151 6.0 10.0 0.00 0.00 0.00 46 1014.6
20260504185247 69 179 6.0 15.0 0.00 0.00 0.00 47 1014.5
20260504184743 69 161 6.0 11.0 0.00 0.00 0.00 48 1014.7
20260504184239 69 131 3.0 7.0 0.00 0.00 0.00 48 1014.6
20260504183735 70 193 3.0 7.0 0.00 0.00 0.00 48 1014.7
20260504183232 70 109 3.0 8.0 0.00 0.00 0.00 48 1014.8
20260504182730 69 116 3.0 8.0 0.00 0.00 0.00 51 1014.9
20260504182227 69 158 5.0 7.0 0.00 0.00 0.00 49 1014.9
20260504181725 69 109 7.0 9.0 0.00 0.00 0.00 51 1015.1
20260504181222 70 162 4.0 8.0 0.00 0.00 0.00 50 1015.3
20260504180721 70 153 4.0 7.0 0.00 0.00 0.00 48 1015.3
20260504180219 69 181 5.0 11.0 0.00 0.00 0.00 49 1015.4
20260504175716 70 157 5.0 10.0 0.00 0.00 0.00 48 1015.3
20260504175213 71 195 4.0 6.0 0.00 0.00 0.00 47 1015.4
20260504174711 70 126 6.0 17.0 0.00 0.00 0.00 51 1015.5
20260504174209 72 174 3.0 6.0 0.00 0.00 0.00 36 1015.5
20260504173704 74 184 3.0 6.0 0.00 0.00 0.00 28 1015.6
20260504173202 72 119 7.0 9.0 0.00 0.00 0.00 38 1015.5
20260504172658 74 291 1.0 9.0 0.00 0.00 0.00 26 1015.8
20260504172155 73 168 2.0 6.0 0.00 0.00 0.00 28 1015.5
20260504171651 74 177 3.0 6.0 0.00 0.00 0.00 28 1015.6
20260504171149 74 165 3.0 7.0 0.00 0.00 0.00 28 1015.8
20260504170645 73 228 4.0 6.0 0.00 0.00 0.00 27 1015.8
20260504170143 73 161 3.0 6.0 0.00 0.00 0.00 27 1015.9
20260504151028 71 257 1.0 5.0 0.00 0.00 0.00 33 1017.1
20260504150525 69 201 3.0 7.0 0.00 0.00 0.00 34 1017.2
20260504140951 67 161 4.0 11.0 0.00 0.00 0.00 33 1017.6
20260504140447 67 160 7.0 9.0 0.00 0.00 0.00 33 1017.6
20260504130412 64 185 6.0 7.0 0.00 0.00 0.00 43 1018.1
20260504110259 53 162 3.0 6.0 0.00 0.00 0.00 66 1019.0
20260504100217 48 151 2.0 5.0 0.00 0.00 0.00 69 1018.8
20260504090140 49 196 2.0 5.0 0.00 0.00 0.00 66 1018.8
20260504081610 48 208 2.0 3.0 0.00 0.00 0.00 63 1018.5
20260504081106 48 117 2.0 2.0 0.00 0.00 0.00 63 1018.7
20260504080603 48 170 3.0 3.0 0.00 0.00 0.00 64 1018.7
20260504050415 48 128 2.0 2.0 0.00 0.00 0.00 52 1018.2
20260504045912 49 229 1.0 5.0 0.00 0.00 0.00 51 1017.9
20260504045408 48 215 0.0 2.0 0.00 0.00 0.00 52 1017.9
20260504044905 48 124 2.0 2.0 0.00 0.00 0.00 53 1017.9
20260504044402 48 122 3.0 4.0 0.00 0.00 0.00 53 1017.9
20260504043900 48 164 2.0 3.0 0.00 0.00 0.00 51 1017.8
20260504043356 48 173 0.0 3.0 0.00 0.00 0.00 52 1017.8
20260504042854 48 114 0.0 4.0 0.00 0.00 0.00 52 1017.6
20260504042350 48 167 3.0 4.0 0.00 0.00 0.00 51 1017.6
20260504041846 48 119 2.0 4.0 0.00 0.00 0.00 52 1017.6
20260504041343 48 117 1.0 2.0 0.00 0.00 0.00 51 1017.8
20260504040838 48 152 2.0 4.0 0.00 0.00 0.00 50 1017.5
20260504040337 47 115 2.0 3.0 0.00 0.00 0.00 52 1017.6
20260504035832 48 157 1.0 3.0 0.00 0.00 0.00 52 1017.6
20260504035330 48 148 1.0 2.0 0.00 0.00 0.00 51 1017.6
20260504034827 48 139 2.0 3.0 0.00 0.00 0.00 51 1017.6
20260504034324 48 135 2.0 2.0 0.00 0.00 0.00 51 1017.6
20260504033821 48 148 1.0 2.0 0.00 0.00 0.00 51 1017.4
20260504033319 48 145 1.0 2.0 0.00 0.00 0.00 51 1017.3
20260504032815 48 105 1.0 3.0 0.00 0.00 0.00 51 1017.4
20260504032313 48 127 2.0 3.0 0.00 0.00 0.00 50 1017.5
20260504031810 48 130 2.0 3.0 0.00 0.00 0.00 51 1017.3
20260504031307 48 121 2.0 2.0 0.00 0.00 0.00 52 1017.2
20260504030803 48 157 0.0 3.0 0.00 0.00 0.00 51 1017.3
20260504030300 48 112 2.0 2.0 0.00 0.00 0.00 52 1017.4
20260504025756 48 127 2.0 3.0 0.00 0.00 0.00 50 1017.4
20260504025253 47 117 0.0 2.0 0.00 0.00 0.00 52 1017.1
20260504024750 47 151 0.0 2.0 0.00 0.00 0.00 53 1017.2
20260504024247 47 151 1.0 2.0 0.00 0.00 0.00 52 1017.2
20260504023744 47 105 0.0 2.0 0.00 0.00 0.00 53 1017.1
20260504023240 48 157 0.0 1.0 0.00 0.00 0.00 52 1017.1
20260504022736 48 157 0.0 2.0 0.00 0.00 0.00 50 1017.2
20260504022232 48 157 0.0 2.0 0.00 0.00 0.00 51 1017.2
20260504021730 49 139 2.0 3.0 0.00 0.00 0.00 49 1017.3
20260504021227 49 140 1.0 3.0 0.00 0.00 0.00 50 1017.2
20260504020723 49 118 3.0 3.0 0.00 0.00 0.00 50 1017.4
20260504020220 49 218 2.0 3.0 0.00 0.00 0.00 50 1017.4
20260504015716 49 243 0.0 3.0 0.00 0.00 0.00 49 1017.4
20260504015213 49 146 0.0 3.0 0.00 0.00 0.00 49 1017.2
20260504014708 48 180 1.0 1.0 0.00 0.00 0.00 50 1017.1
20260504014205 49 171 2.0 3.0 0.00 0.00 0.00 50 1017.1
20260504013703 48 145 0.0 2.0 0.00 0.00 0.00 51 1017.1
20260504013200 48 126 0.0 2.0 0.00 0.00 0.00 51 1017.1
20260504012657 49 144 0.0 2.0 0.00 0.00 0.00 51 1017.0
20260504012155 49 135 0.0 3.0 0.00 0.00 0.00 50 1016.8
20260504011652 49 168 1.0 2.0 0.00 0.00 0.00 49 1016.9
20260504011148 49 131 0.0 2.0 0.00 0.00 0.00 50 1016.8
20260504010644 49 160 0.0 1.0 0.00 0.00 0.00 49 1016.6
20260504010139 49 157 1.0 2.0 0.00 0.00 0.00 49 1016.6
20260504005637 49 157 1.0 2.0 0.00 0.00 0.00 50 1016.6
20260504005133 49 160 1.0 2.0 0.00 0.00 0.00 50 1016.5
20260504004632 49 128 0.0 2.0 0.00 0.00 0.00 50 1016.4
20260504004129 49 120 2.0 2.0 0.00 0.00 0.00 50 1016.0
20260504003625 49 166 0.0 2.0 0.00 0.00 0.00 49 1016.3
20260504003121 50 160 1.0 2.0 0.00 0.00 0.00 49 1016.3
20260504002618 50 135 2.0 2.0 0.00 0.00 0.00 49 1016.3
20260504002116 50 146 2.0 2.0 0.00 0.00 0.00 48 1016.2
20260504001614 51 126 1.0 1.0 0.00 0.00 0.00 47 1016.1
20260504001109 51 145 0.0 2.0 0.00 0.00 0.00 47 1016.1
20260504000607 51 131 2.0 2.0 0.00 0.00 0.00 46 1015.8
20260504000104 52 145 1.0 2.0 0.00 0.00 0.00 45 1016.0
20260503235603 53 126 0.0 2.0 0.00 0.00 0.00 45 1015.8
20260503235059 53 157 0.0 2.0 0.00 0.00 0.00 42 1015.8
20260503234557 54 151 0.0 0.0 0.00 0.00 0.00 40 1015.7
20260503234055 55 133 3.0 3.0 0.00 0.00 0.00 39 1015.7
20260503233551 55 157 2.0 3.0 0.00 0.00 0.00 37 1015.6
20260503233047 56 90 0.0 3.0 0.00 0.00 0.00 36 1015.7
20260503232544 57 164 2.0 2.0 0.00 0.00 0.00 33 1015.4
20260503232042 57 125 3.0 3.0 0.00 0.00 0.00 33 1015.5
20260503231539 57 140 0.0 3.0 0.00 0.00 0.00 33 1015.5
20260503231036 57 126 0.0 3.0 0.00 0.00 0.00 32 1015.4
20260503230532 58 145 1.0 2.0 0.00 0.00 0.00 31 1015.5
20260503230030 58 195 0.0 4.0 0.00 0.00 0.00 31 1015.5
20260503225527 58 160 0.0 2.0 0.00 0.00 0.00 31 1015.6
20260503225022 58 188 3.0 3.0 0.00 0.00 0.00 29 1015.4
20260503224520 59 187 0.0 4.0 0.00 0.00 0.00 30 1015.4
20260503224017 59 177 0.0 4.0 0.00 0.00 0.00 31 1015.3
20260503223515 59 141 2.0 5.0 0.00 0.00 0.00 28 1015.5
20260503223010 59 204 2.0 6.0 0.00 0.00 0.00 28 1015.3
20260503222509 59 172 0.0 5.0 0.00 0.00 0.00 29 1015.2
20260503222007 59 178 4.0 8.0 0.00 0.00 0.00 28 1015.3
20260503221505 59 256 5.0 11.0 0.00 0.00 0.00 27 1015.3
20260503221002 60 135 2.0 6.0 0.00 0.00 0.00 27 1015.1
20260503220458 60 277 1.0 3.0 0.00 0.00 0.00 29 1015.2
20260503215954 60 254 3.0 6.0 0.00 0.00 0.00 26 1015.0
20260503215451 60 174 3.0 5.0 0.00 0.00 0.00 27 1015.3
20260503214949 61 273 3.0 6.0 0.00 0.00 0.00 26 1015.1
20260503214447 61 308 2.0 4.0 0.00 0.00 0.00 27 1015.1
20260503213944 62 176 2.0 11.0 0.00 0.00 0.00 26 1015.2
20260503213442 62 255 1.0 4.0 0.00 0.00 0.00 25 1014.9
20260503212938 62 182 3.0 9.0 0.00 0.00 0.00 25 1015.2
20260503212435 62 180 3.0 4.0 0.00 0.00 0.00 25 1015.0
20260503211933 62 334 2.0 3.0 0.00 0.00 0.00 26 1015.0
20260503211430 61 194 0.0 8.0 0.00 0.00 0.00 27 1014.9
20260503210924 62 225 2.0 7.0 0.00 0.00 0.00 27 1015.0
20260503210422 61 187 1.0 4.0 0.00 0.00 0.00 27 1015.1
20260503205917 62 239 2.0 7.0 0.00 0.00 0.00 25 1015.1
20260503205414 62 247 5.0 11.0 0.00 0.00 0.00 26 1015.0
20260503204910 62 165 1.0 5.0 0.00 0.00 0.00 25 1014.8
20260503204408 62 211 3.0 4.0 0.00 0.00 0.00 27 1014.9
20260503203905 61 180 3.0 10.0 0.00 0.00 0.00 26 1014.8
20260503203402 62 126 1.0 11.0 0.00 0.00 0.00 27 1014.9
20260503202859 62 299 3.0 9.0 0.00 0.00 0.00 25 1014.9
20260503202357 62 229 3.0 17.0 0.00 0.00 0.00 27 1014.9
20260503201855 62 168 0.0 6.0 0.00 0.00 0.00 26 1014.9
20260503201352 62 278 1.0 9.0 0.00 0.00 0.00 27 1014.9
20260503200849 62 151 3.0 5.0 0.00 0.00 0.00 25 1015.0
20260503200345 61 222 3.0 8.0 0.00 0.00 0.00 27 1015.1
20260503195842 62 244 7.0 8.0 0.00 0.00 0.00 26 1015.3
20260503195339 60 150 4.0 13.0 0.00 0.00 0.00 28 1015.1
20260503194836 62 11 4.0 9.0 0.00 0.00 0.00 27 1015.2
20260503194332 61 6 1.0 4.0 0.00 0.00 0.00 30 1015.2
20260503193828 61 198 1.0 11.0 0.00 0.00 0.00 29 1015.4
20260503193324 62 336 2.0 12.0 0.00 0.00 0.00 28 1015.4
20260503192820 62 138 0.0 6.0 0.00 0.00 0.00 28 1015.4
20260503192316 61 255 1.0 8.0 0.00 0.00 0.00 30 1015.5
20260503191812 61 281 0.0 9.0 0.00 0.00 0.00 29 1015.4
20260503191310 59 135 2.0 3.0 0.00 0.00 0.00 31 1015.5
20260503190806 62 6 1.0 3.0 0.00 0.00 0.00 30 1015.6
20260503190303 60 173 1.0 6.0 0.00 0.00 0.00 29 1015.7
20260503185801 61 245 2.0 6.0 0.00 0.00 0.00 30 1015.6